This is the latest recevied weather packets stored in our database for station/object IT9GFD-13. If no packets are shown the sender has not sent any weather packets the latest 10 day(s).
| Time | Temp. | Humidity | Pressure | Rain* | Wind** | Luminosity | Snow |
|---|---|---|---|---|---|---|---|
| 1777939217 | 14.44° C | 70% | 1020 hPa | 0 mm | - | - | - |
| 1777937417 | 14.44° C | 73% | 1020.4 hPa | 0 mm | - | - | - |
| 1777933217 | 15° C | 78% | 1020.7 hPa | 0 mm | - | - | - |
| 1777931417 | 15° C | 78% | 1020.8 hPa | 0 mm | - | - | - |
| 1777926017 | 16.11° C | 81% | 1021.2 hPa | 0 mm | - | - | - |
| 1777923017 | 16.67° C | 79% | 1021.1 hPa | 0 mm | - | - | - |
| 1777921837 | 17.22° C | 78% | 1020.9 hPa | 0 mm | - | - | - |
| 1777916417 | 18.89° C | 75% | 1020.3 hPa | 0 mm | - | - | - |
| 1777914621 | 18.89° C | 74% | 1020 hPa | 0 mm | - | - | - |
| 1777912216 | 19.44° C | 71% | 1019.8 hPa | 0 mm | - | - | - |
| 1777910416 | 20° C | 66% | 1019.6 hPa | 0 mm | - | - | - |
| 1777909836 | 20° C | 65% | 1019.6 hPa | 0 mm | - | - | - |
| 1777908016 | 20° C | 56% | 1019.8 hPa | 0 mm | - | - | - |
| 1777907416 | 20° C | 56% | 1019.6 hPa | 0 mm | - | - | - |
| 1777906216 | 20° C | 60% | 1019.8 hPa | 0 mm | - | - | - |
| 1777905016 | 20.56° C | 59% | 1020 hPa | 0 mm | - | - | - |
| 1777904436 | 20.56° C | 61% | 1020.1 hPa | 0 mm | - | - | - |
| 1777903216 | 20° C | 63% | 1020.4 hPa | 0 mm | - | - | - |
| 1777902616 | 20° C | 65% | 1020.5 hPa | 0 mm | - | - | - |
| 1777897216 | 19.44° C | 71% | 1021.4 hPa | 0 mm | - | - | - |
| 1777895436 | 18.89° C | 73% | 1021.3 hPa | 0 mm | - | - | - |
| 1777894216 | 18.89° C | 72% | 1021.3 hPa | 0 mm | - | - | - |
| 1777893016 | 19.44° C | 71% | 1021.3 hPa | 0 mm | - | - | - |
| 1777888816 | 19.44° C | 66% | 1022 hPa | 0 mm | - | - | - |
| 1777887616 | 18.89° C | 68% | 1022.1 hPa | 0 mm | - | - | - |
* Rain latest hour (hover to see other rain measurements)
** Current wind speed in m/s (hover to see current wind gust speed)